Location: East Guldeford
(50.9500°N, 0.7500°E)
Time: 09:47:17
(UTC+00:00)

Cosmos 2369 Rocket - Pass Details

Date: 12 May 2021
Orbit: 827 x 854 km, 71.0° (Epoch: 16 June)

Event Time Altitude Azimuth Distance (km) Brightness Sun altitude
Exits shadow 23:43:35 32° 219° (SW) 1,399 2.9 -20.6°
Maximum altitude 23:46:17 78° 300° (WNW) 861 2.2 -20.6°
Drops below altitude 10° 23:51:58 10° 28° (NNE) 2,472 5.5 -20.7°
Sets 23:54:27 0° 30° (NNE) 3,415 6.4 -20.7°
